Location: Hillsville
(41.0078°N, 80.4967°W)
Time: 10:45:53
(UTC+00:00)

Daily predictions for brighter satellites

Satellite Brightness Start Highest point End
(mag) Time Altitude Azimuth Time Altitude Azimuth Time Altitude Azimuth
Cosmos 1934 Rocket 4.1 22:44:55 10° N 22:51:13 60° E 22:57:29 10° SSE
Cosmos 1726 2.0 22:51:40 10° S 22:55:17 68° E 22:58:55 10° NNE
Cosmos 1703 3.5 22:51:52 10° N 22:55:39 44° E 22:59:23 10° SSE
SKYMED 2 4.3 22:52:09 10° NNE 22:56:05 32° E 22:59:59 10° SSE
Cosmos 2082 Rocket 3.1 22:51:22 10° N 22:56:14 28° NE 23:01:04 10° ESE
AQUARIUS 4.3 22:54:02 10° SSE 22:58:31 87° W 23:03:03 10° NNW
Abrixas rocket 3.4 22:56:15 10° W 22:59:02 31° NNW 23:01:50 10° NE
Cosmos 1726 Rocket 4.1 22:55:04 10° SSW 22:59:24 64° W 23:03:45 10° N
Envisat 3.2 22:57:01 10° SE 23:01:52 48° ENE 23:06:45 10° N
Cosmos 292 Rocket 4.2 22:58:17 10° SSW 23:02:59 66° WNW 23:07:44 10° NNE
Unknown 4.5 23:00:02 10° NNW 23:03:01 25° NNE 23:06:01 10° E
ATLAS 3B R/B 3.7 23:00:50 10° SSE 23:05:50 22° ESE 23:10:47 10° ENE
Cosmos 1535 Rocket 4.4 23:01:09 10° N 23:07:21 80° E 23:13:27 10° S
Cosmos 1908 3.2 23:03:48 10° S 23:07:38 62° E 23:11:29 10° NNE
CENTAUR R/B 3.4 23:07:52 10° SSE 23:12:25 24° ESE 23:17:28 10° ENE
COBE Rocket 3.9 23:07:28 10° NNE 23:12:36 71° E 23:17:33 10° S
CZ-4 R/B 2.0 23:08:50 10° SE 23:12:43 38° ENE 23:16:39 10° N
SMAP 3.9 23:09:09 10° S 23:13:42 55° W 23:18:16 10° NNW
Cosmos 1461 3.0 23:11:13 10° NNW 23:15:15 54° NE 23:19:26 10° SE
USA 116 4.4 23:12:39 10° NE 23:15:35 27° E 23:18:45 10° SSE
COSMOS 2406 3.6 23:11:23 10° NNW 23:17:07 70° WSW 23:22:47 10° SSE
ATLAS 5 CENTAUR R/B 4.4 23:17:01 10° NW 23:18:02 11° NNW 23:19:05 10° NNW
YAOGAN 6 2.8 23:19:23 10° SSE 23:22:52 45° ENE 23:26:20 10° N
Cosmos 2058 Rocket 4.2 23:24:33 10° SSW 23:28:44 46° WNW 23:32:57 10° N
Unknown 4.1 23:26:29 10° WNW 23:29:27 42° SW 23:32:27 10° SSE
Cosmos 2084 Rocket 4.2 23:27:36 10° NNW 23:31:42 35° NE 23:34:29 17° ESE
SJ 16-02 3.2 23:30:26 10° NNE 23:32:07 13° NE 23:32:07 13° NE
Cosmos 2278 Rocket 2.7 23:28:40 10° SW 23:34:17 62° WNW 23:39:56 10° NNE
Cosmos 2100 Rocket 4.5 23:31:07 10° N 23:36:43 35° ENE 23:42:16 10° SE
Cosmos 2297 4.0 23:34:16 10° S 23:39:39 46° ESE 23:45:06 10° NE
CSL-04 Rocket 3.6 23:36:57 10° SSE 23:42:26 68° ENE 23:47:52 10° N
USA 238 DEB 3.8 23:35:51 10° SW 23:42:31 80° NW 23:49:27 10° NNE
USA 238 3.8 23:35:57 10° SW 23:42:38 81° NW 23:49:34 10° NNE
COSMO-SKYMED 1 2.8 23:39:53 10° N 23:44:13 72° WNW 23:48:32 10° SSW
Ariane Rocket 3.6 23:40:07 10° SE 23:44:38 33° ENE 23:49:11 10° N
Gbstr 26 Del rocket 4.1 23:39:02 10° NW 23:45:09 84° NE 23:51:39 14° SE
Unknown 3.0 23:44:09 10° NW 23:47:33 67° NE 23:48:55 32° ESE
FengYun 1-2 T 4.3 23:41:56 10° SSE 23:47:35 84° WSW 23:53:13 10° NNW
Cosmos 468 Rocket 4.5 23:42:46 10° SSE 23:47:36 37° ESE 23:52:25 10° NE
Cosmos 1153 Rocket 4.4 23:46:14 10° N 23:52:23 75° E 23:58:31 10° SSE
Cosmos 1300 2.5 23:51:54 10° S 23:55:42 74° E 23:59:31 10° NNE
